This demonstration page uses our WeatherBlox Daily Observations layout. Learn more.

Left ArrowRight Arrow

Hourly Observations for September 8, 2015

Temp ( °F °C ) Dew Point ( °F °C ) Humidity (%) Winds ( mph kmh ) Pressure ( in mb ) Visibility ( mi km ) Precip ( " mm )
12:53 am 00:53 Clear 70 21.1 37 2.8 30 30 NW 5 7 29.88 1012 10 16 0.00 0.00
1:53 am 01:53 Clear 67 19.4 34 1.1 30 30 NNE 5 7 29.88 1012 10 16 0.00 0.00
2:53 am 02:53 Clear 63 17.2 34 1.1 34 34 Calm 29.88 1012 10 16 0.00 0.00
3:53 am 03:53 Clear 60 15.6 34 1.1 38 38 Calm 29.88 1012 10 16 0.00 0.00
4:53 am 04:53 Clear 61 16.1 34 1.1 36 36 NNE 3 6 29.88 1012 10 16 0.00 0.00
5:53 am 05:53 Clear 58 14.4 33 0.6 39 39 Calm 29.88 1012 10 16 0.00 0.00
6:53 am 06:53 Sunny 57 13.9 34 1.1 42 42 Calm 29.89 1012 10 16 0.00 0.00
7:53 am 07:53 Sunny 64 17.8 34 1.1 33 33 Calm 29.90 1013 10 16 0.00 0.00
8:53 am 08:53 Sunny 75 23.9 36 2.2 24 24 Calm 29.89 1012 10 16 0.00 0.00
9:53 am 09:53 Sunny 88 31.1 32 0 13 13 N 10 17 29.88 1012 10 16 0.00 0.00
10:53 am 10:53 Sunny 92 33.3 31 -0.6 11 11 NNW 8 13 29.88 1012 10 16 0.00 0.00
11:53 am 11:53 Sunny 97 36.1 31 -0.6 10 10 Calm 29.85 1011 10 16 0.00 0.00
12:53 pm 12:53 Sunny 101 38.3 29 -1.7 8 8 WNW 5 7 29.83 1010 10 16 0.00 0.00
1:53 pm 13:53 Sunny 102 38.9 27 -2.8 7 7 SSW 6 9 29.81 1010 10 16 0.00 0.00
2:53 pm 14:53 Sunny 103 39.4 26 -3.3 6 6 VRB 6 9 29.80 1009 10 16 0.00 0.00
3:53 pm 15:53 Sunny 104 40 26 -3.3 6 6 SE 8 13 29.78 1008 10 16 0.00 0.00
4:53 pm 16:53 Sunny 104 40 25 -3.9 6 6 undefined N/A 29.76 1008 10 16 0.00 0.00
5:53 pm 17:53 Sunny 102 38.9 27 -2.8 7 7 SSE 14 22 29.76 1008 10 16 0.00 0.00
6:53 pm 18:53 Sunny 97 36.1 31 -0.6 10 10 SSE 9 15 29.76 1008 10 16 0.00 0.00
7:53 pm 19:53 Clear 88 31.1 33 0.6 14 14 SSE 6 9 29.77 1008 10 16 0.00 0.00
8:53 pm 20:53 Clear 86 30 36 2.2 17 17 S 5 7 29.79 1009 10 16 0.00 0.00
9:53 pm 21:53 Clear 79 26.1 38 3.3 23 23 Calm 29.81 1010 10 16 0.00 0.00
10:53 pm 22:53 Clear 77 25 36 2.2 23 23 Calm 29.82 1010 10 16 0.00 0.00
11:53 pm 23:53 Clear 74 23.3 35 1.7 24 24 N 3 6 29.83 1010 10 16 0.00 0.00

Powered by AerisWeather